Langdon, ND

8:37 AM CDT on April 28, 2017 (GMT -0500)
Langdon

Weather History for KD55 - April, 2013

Change the Weather History Date:

Thursday, April 11, 2013

  Actual Average (KDVL) Record (KDVL)
Temperature  
Mean Temperature 24 °F -  
Max Temperature 28 °F 51 °F 81 °F (1968)
Min Temperature 21 °F 29 °F 6 °F (1957)
Degree Days  
Heating Degree Days 40    
Moisture  
Dew Point 19 °F    
Average Humidity 78    
Maximum Humidity 100    
Minimum Humidity 59    
Precipitation  
Precipitation 0.00 in - - ()
Sea Level Pressure  
Sea Level Pressure 29.96 in    
Wind  
Wind Speed 14 mph (ENE)    
Max Wind Speed 20 mph    
Max Gust Speed 24 mph    
Visibility 10 miles    
Events Rain , Snow    
Averages and records for this station are not official NWS values.
T = Trace of Precipitation, MM = Missing Value Source: NWS Daily Summary

Daily Weather History Graph

Daily Weather History Graph

Search for Another Location

Airport or City:

Trip Planner

Search our weather history database for the weather conditions in past years. The results will help you decide how hot, cold, wet, or windy it might be!

Date:

Astronomy

Apr. 11, 2013 Rise Set
Actual Time 6:50 AM CDT 8:19 PM CDT
Civil Twilight 6:17 AM CDT 8:52 PM CDT
Nautical Twilight 5:37 AM CDT 9:32 PM CDT
Astronomical Twilight 4:54 AM CDT 10:16 PM CDT
Moon 7:15 AM CDT (4/11) 10:05 PM CDT (4/11)
Length of Visible Light 14h 35m
Length of Day
13h 29m
New Moon, 2% of the Moon is Illuminated
Apr 11
New Moon
Apr 18
First Quarter
Apr 25
Full
May 2
Last Quarter
May 9
New

Hourly Weather History & Observations

Time (CDT) Temp. Windchill Dew Point Humidity Pressure Visibility Wind Dir Wind Speed Gust Speed Precip Events Conditions
12:15 AM 21.2 °F 8.3 °F 10.4 °F 63% 30.07 in 10.0 mi NE 13.8 mph - N/A   Mostly Cloudy
12:35 AM 24.8 °F 13.4 °F 12.2 °F 59% 30.08 in 10.0 mi NE 12.7 mph - N/A   Overcast
12:55 AM 24.8 °F 13.4 °F 12.2 °F 59% 30.07 in 10.0 mi NE 12.7 mph - N/A   Overcast
1:15 AM 23.0 °F 11.7 °F 14.0 °F 68% 30.07 in 10.0 mi NE 11.5 mph - N/A   Overcast
1:35 AM 23.0 °F 12.4 °F 14.0 °F 68% 30.06 in 10.0 mi ENE 10.4 mph - N/A   Overcast
1:55 AM 23.0 °F 12.4 °F 14.0 °F 68% 30.05 in 10.0 mi ENE 10.4 mph - N/A   Overcast
2:15 AM 23.0 °F 11.7 °F 15.8 °F 74% 30.05 in 10.0 mi ENE 11.5 mph - N/A   Overcast
2:35 AM 23.0 °F 11.1 °F 15.8 °F 74% 30.04 in 10.0 mi East 12.7 mph - N/A   Overcast
2:55 AM 24.8 °F 13.4 °F 15.8 °F 69% 30.03 in 10.0 mi East 12.7 mph - N/A   Overcast
3:15 AM 24.8 °F 12.4 °F 15.8 °F 69% 30.01 in 10.0 mi East 15.0 mph - N/A   Overcast
3:35 AM 24.8 °F 12.9 °F 15.8 °F 69% 30.00 in 10.0 mi East 13.8 mph - N/A   Overcast
3:55 AM 24.8 °F 14.0 °F 15.8 °F 69% 30.00 in 10.0 mi East 11.5 mph - N/A   Overcast
4:15 AM 24.8 °F 14.0 °F 17.6 °F 74% 30.00 in 10.0 mi East 11.5 mph - N/A   Overcast
4:35 AM 24.8 °F 14.0 °F 15.8 °F 69% 29.98 in 10.0 mi East 11.5 mph - N/A   Overcast
4:55 AM 26.6 °F 15.7 °F 15.8 °F 64% 29.98 in 10.0 mi East 12.7 mph - N/A   Overcast
5:15 AM 24.8 °F 12.9 °F 15.8 °F 69% 29.97 in 10.0 mi East 13.8 mph - N/A   Overcast
5:35 AM 24.8 °F 12.9 °F 15.8 °F 69% 29.96 in 10.0 mi East 13.8 mph - N/A   Overcast
5:55 AM 24.8 °F 12.9 °F 15.8 °F 69% 29.96 in 10.0 mi East 13.8 mph - N/A   Overcast
6:15 AM 24.8 °F 13.4 °F 15.8 °F 69% 29.96 in 10.0 mi ENE 12.7 mph - N/A   Overcast
6:35 AM 24.8 °F 13.4 °F 15.8 °F 69% 29.96 in 10.0 mi East 12.7 mph - N/A   Scattered Clouds
6:55 AM 23.0 °F 10.1 °F 15.8 °F 74% 29.95 in 10.0 mi ENE 15.0 mph - N/A   Scattered Clouds
7:15 AM 23.0 °F 10.6 °F 15.8 °F 74% 29.95 in 10.0 mi ENE 13.8 mph - N/A   Overcast
7:35 AM 23.0 °F 9.6 °F 15.8 °F 74% 29.94 in 10.0 mi ENE 16.1 mph - N/A   Mostly Cloudy
7:55 AM 23.0 °F 9.6 °F 17.6 °F 80% 29.95 in 10.0 mi ENE 16.1 mph - N/A   Partly Cloudy
8:15 AM 23.0 °F 9.6 °F 15.8 °F 74% 29.95 in 10.0 mi East 16.1 mph - N/A   Mostly Cloudy
8:35 AM 23.0 °F 9.6 °F 17.6 °F 80% 29.95 in 10.0 mi East 16.1 mph - N/A   Overcast
8:55 AM 24.8 °F 11.9 °F 17.6 °F 74% 29.94 in 10.0 mi East 16.1 mph - N/A   Overcast
9:15 AM 24.8 °F 11.9 °F 17.6 °F 74% 29.95 in 10.0 mi East 16.1 mph - N/A   Overcast
9:35 AM 24.8 °F 11.1 °F 17.6 °F 74% 29.93 in 10.0 mi East 18.4 mph - N/A   Mostly Cloudy
9:55 AM 24.8 °F 11.5 °F 17.6 °F 74% 29.93 in 10.0 mi East 17.3 mph 21.9 mph N/A   Scattered Clouds
10:15 AM 24.8 °F 12.9 °F 17.6 °F 74% 29.93 in 10.0 mi ENE 13.8 mph - N/A   Mostly Cloudy
10:35 AM 24.8 °F 10.7 °F 17.6 °F 74% 29.93 in 10.0 mi East 19.6 mph - N/A   Overcast
10:55 AM 24.8 °F 11.1 °F 19.4 °F 80% 29.94 in 10.0 mi East 18.4 mph - N/A   Mostly Cloudy
11:15 AM 24.8 °F 11.1 °F 19.4 °F 80% 29.94 in 10.0 mi East 18.4 mph - N/A   Scattered Clouds
11:35 AM 26.6 °F 13.1 °F 17.6 °F 69% 29.94 in 10.0 mi East 19.6 mph - N/A   Partly Cloudy
12:15 PM 26.6 °F 13.4 °F 17.6 °F 69% 29.95 in 10.0 mi East 18.4 mph - N/A   Scattered Clouds
12:35 PM 26.6 °F 13.8 °F 19.4 °F 74% 29.94 in 10.0 mi East 17.3 mph - N/A   Overcast
12:55 PM 26.6 °F 14.7 °F 19.4 °F 74% 29.94 in 10.0 mi East 15.0 mph - N/A   Mostly Cloudy
1:15 PM 26.6 °F 13.8 °F 19.4 °F 74% 29.95 in 10.0 mi East 17.3 mph - N/A   Partly Cloudy
1:35 PM 26.6 °F 14.3 °F 19.4 °F 74% 29.94 in 10.0 mi East 16.1 mph - N/A   Partly Cloudy
1:55 PM 26.6 °F 14.3 °F 19.4 °F 74% 29.94 in 10.0 mi East 16.1 mph - N/A   Partly Cloudy
2:15 PM 26.6 °F 14.3 °F 19.4 °F 74% 29.94 in 10.0 mi East 16.1 mph - N/A   Clear
2:35 PM 26.6 °F 14.3 °F 19.4 °F 74% 29.94 in 10.0 mi East 16.1 mph - N/A   Clear
2:55 PM 28.4 °F 17.0 °F 19.4 °F 69% 29.94 in 10.0 mi East 15.0 mph - N/A   Partly Cloudy
3:15 PM 28.4 °F 17.5 °F 19.4 °F 69% 29.93 in 10.0 mi East 13.8 mph - N/A   Mostly Cloudy
3:35 PM 28.4 °F 15.8 °F 21.2 °F 74% 29.93 in 10.0 mi ENE 18.4 mph - N/A   Mostly Cloudy
3:55 PM 28.4 °F 16.6 °F 19.4 °F 69% 29.93 in 10.0 mi East 16.1 mph - N/A   Overcast
4:15 PM 28.4 °F 15.8 °F 19.4 °F 69% 29.94 in 10.0 mi East 18.4 mph - N/A   Overcast
4:35 PM 28.4 °F 16.6 °F 21.2 °F 74% 29.93 in 10.0 mi East 16.1 mph - N/A   Overcast
4:55 PM 28.4 °F 17.0 °F 19.4 °F 69% 29.93 in 10.0 mi East 15.0 mph - N/A   Overcast
5:15 PM 28.4 °F 17.0 °F 19.4 °F 69% 29.93 in 10.0 mi East 15.0 mph - N/A   Overcast
5:35 PM 28.4 °F 15.4 °F 19.4 °F 69% 29.94 in 10.0 mi East 19.6 mph 24.2 mph N/A   Overcast
5:55 PM 28.4 °F 15.8 °F 19.4 °F 69% 29.94 in 10.0 mi East 18.4 mph - N/A   Overcast
6:15 PM 26.6 °F 13.1 °F 19.4 °F 74% 29.94 in 10.0 mi East 19.6 mph - N/A   Overcast
6:35 PM 26.6 °F 13.4 °F 19.4 °F 74% 29.94 in 10.0 mi East 18.4 mph - N/A   Overcast
6:55 PM 26.6 °F 13.8 °F 23.0 °F 86% 29.95 in 10.0 mi East 17.3 mph - N/A   Overcast
7:15 PM 26.6 °F 13.1 °F 24.8 °F 93% 29.95 in 5.0 mi East 19.6 mph 24.2 mph N/A Rain Light Freezing Rain
7:35 PM 24.8 °F 12.4 °F 24.8 °F 100% 29.95 in 5.0 mi East 15.0 mph - N/A   Overcast
7:55 PM 24.8 °F 11.5 °F 24.8 °F 100% 29.94 in 3.0 mi East 17.3 mph - N/A Rain Light Freezing Rain
8:15 PM 24.8 °F 10.7 °F 24.8 °F 100% 29.94 in 8.0 mi ENE 19.6 mph 23.0 mph N/A Rain Light Freezing Rain
8:35 PM 24.8 °F 11.9 °F 24.8 °F 100% 29.94 in 7.0 mi ENE 16.1 mph - N/A   Overcast
8:55 PM 24.8 °F 11.5 °F 24.8 °F 100% 29.94 in 3.0 mi ENE 17.3 mph - N/A Snow Light Snow
9:15 PM 24.8 °F 12.4 °F 24.8 °F 100% 29.94 in 8.0 mi ENE 15.0 mph - N/A Snow Light Snow
9:35 PM 24.8 °F 11.9 °F 24.8 °F 100% 29.94 in 10.0 mi ENE 16.1 mph - N/A   Mostly Cloudy
9:55 PM 24.8 °F 12.4 °F 24.8 °F 100% 29.94 in 7.0 mi ENE 15.0 mph - N/A   Mostly Cloudy
10:15 PM 24.8 °F 11.9 °F 24.8 °F 100% 29.94 in 8.0 mi ENE 16.1 mph - N/A Snow Light Snow
10:35 PM 26.6 °F 14.7 °F 26.6 °F 100% 29.94 in 10.0 mi ENE 15.0 mph - N/A Rain Light Freezing Rain
10:55 PM 26.6 °F 15.7 °F 26.6 °F 100% 29.93 in 10.0 mi ENE 12.7 mph - N/A   Overcast
11:15 PM 26.6 °F 15.7 °F 26.6 °F 100% 29.93 in 10.0 mi NE 12.7 mph - N/A Rain Light Freezing Rain
11:35 PM 26.6 °F 15.7 °F 26.6 °F 100% 29.93 in 10.0 mi ENE 12.7 mph 17.3 mph N/A   Overcast
11:55 PM 26.6 °F 16.2 °F 26.6 °F 100% 29.93 in 10.0 mi NE 11.5 mph - N/A   Overcast